,,PA_Meas_PMT16A,,PR_Meas_QMR101_102,,RH_Meas_QMH101,,SR_Meas_QMS101,,TA_Meas_QMH101,,GenWind,,GenWind,
time,status,PA,status,PR,status,RH,status,SR,status,TA,status,DirAvg,status,SpdAvg,
2011-06-30, 00:00:04,VALID,919.691,VALID,0,VALID,97.4959,VALID,0,VALID,17.7923,VALID,351,VALID,0.133203,
2011-06-30, 00:01:04,VALID,919.706,VALID,0,VALID,97.4882,VALID,0,VALID,17.8326,VALID,351,VALID,0.198828,
2011-06-30, 00:02:04,VALID,919.7,VALID,0,VALID,97.4577,VALID,0,VALID,17.8118,VALID,351,VALID,0.662891,
2011-06-30, 00:03:04,VALID,919.688,VALID,0,VALID,97.4044,VALID,0,VALID,17.7728,VALID,351,VALID,0.631641,
2011-06-30, 00:04:04,VALID,919.664,VALID,0,VALID,97.4501,VALID,0,VALID,17.7923,VALID,351,VALID,0.236328,
2011-06-30, 00:05:04,VALID,919.636,VALID,0,VALID,97.4654,VALID,0,VALID,17.8326,VALID,351,VALID,0.3625,
2011-06-30, 00:06:04,VALID,919.592,VALID,0,VALID,97.4425,VALID,0,VALID,17.8118,VALID,351,VALID,0,
2011-06-30, 00:07:04,VALID,919.589,VALID,0,VALID,97.4349,VALID,0,VALID,17.8118,VALID,351,VALID,0.0453125,
2011-06-30, 00:08:04,VALID,919.56,VALID,0,VALID,97.4577,VALID,0,VALID,17.8313,VALID,351,VALID,0.164453,
2011-06-30, 00:09:04,VALID,919.545,VALID,0,VALID,97.4882,VALID,0,VALID,17.8911,VALID,351,VALID,0.654688,
2011-06-30, 00:10:04,VALID,919.533,VALID,0,VALID,97.4959,VALID,0,VALID,17.9287,VALID,351,VALID,0.637109,
2011-06-30, 00:11:04,VALID,919.508,VALID,0,VALID,97.5111,VALID,0,VALID,17.9482,VALID,351,VALID,0.412891,
2011-06-30, 00:12:04,VALID,919.538,VALID,0,VALID,97.5035,VALID,0,VALID,17.9872,VALID,351,VALID,0.488281,
2011-06-30, 00:13:04,VALID,919.515,VALID,0,VALID,97.5111,VALID,0,VALID,18.0457,VALID,351,VALID,0.295703,
2011-06-30, 00:14:04,VALID,919.522,VALID,0,VALID,97.4882,VALID,0,VALID,18.1041,VALID,351,VALID,0.287891,
2011-06-30, 00:15:04,VALID,919.479,VALID,0,VALID,97.4959,VALID,0,VALID,18.0262,VALID,351,VALID,0.548828,
2011-06-30, 00:16:04,VALID,919.534,VALID,0,VALID,97.473,VALID,0,VALID,18.0067,VALID,351,VALID,0.312891,
2011-06-30, 00:17:04,VALID,919.512,VALID,0,VALID,97.4654,VALID,0,VALID,17.9872,VALID,351,VALID,0,
2011-06-30, 00:18:04,VALID,919.521,VALID,0,VALID,97.473,VALID,0,VALID,18.0067,VALID,351,VALID,0.120312,
2011-06-30, 00:19:04,VALID,919.51,VALID,0,VALID,97.473,VALID,0,VALID,18.0275,VALID,351,VALID,0.837891,
2011-06-30, 00:20:04,VALID,919.501,VALID,0,VALID,97.473,VALID,0,VALID,18.0262,VALID,351,VALID,0.570703,
2011-06-30, 00:21:04,VALID,919.511,VALID,0,VALID,97.4654,VALID,0,VALID,18.0665,VALID,351,VALID,0.942187,
2011-06-30, 00:22:04,VALID,919.478,VALID,0,VALID,97.4577,VALID,0,VALID,18.0262,VALID,351,VALID,0.909375,
2011-06-30, 00:23:04,VALID,919.475,VALID,0,VALID,97.3358,VALID,0,VALID,17.9677,VALID,351,VALID,0.567578,
2011-06-30, 00:24:04,VALID,919.486,VALID,0,VALID,97.3739,VALID,0,VALID,17.9287,VALID,351,VALID,0.76875,
2011-06-30, 00:25:04,VALID,919.455,VALID,0,VALID,97.3968,VALID,0,VALID,17.9677,VALID,351,VALID,1.07969,
2011-06-30, 00:26:04,VALID,919.475,VALID,0,VALID,97.4425,VALID,0,VALID,17.9886,VALID,351,VALID,0.383203,
2011-06-30, 00:27:04,VALID,919.42,VALID,0,VALID,97.4044,VALID,0,VALID,17.9677,VALID,351,VALID,1.07461,
2011-06-30, 00:28:04,VALID,919.435,VALID,0,VALID,97.4349,VALID,0,VALID,18.0067,VALID,351,VALID,0.845312,
2011-06-30, 00:29:04,VALID,919.43,VALID,0,VALID,97.4273,VALID,0,VALID,17.9872,VALID,351,VALID,0.838281,
2011-06-30, 00:30:04,VALID,919.422,VALID,0,VALID,97.412,VALID,0,VALID,18.0067,VALID,351,VALID,0.758203,
2011-06-30, 00:31:04,VALID,919.415,VALID,0,VALID,97.3815,VALID,0,VALID,17.9872,VALID,351,VALID,0.826953,
2011-06-30, 00:32:04,VALID,919.417,VALID,0,VALID,97.4044,VALID,0.107441,VALID,18.0067,VALID,351,VALID,0.772656,
2011-06-30, 00:33:04,VALID,919.407,VALID,0,VALID,97.3815,VALID,0,VALID,18.0262,VALID,351,VALID,1.00117,
2011-06-30, 00:34:04,VALID,919.344,VALID,0,VALID,97.2824,VALID,0,VALID,17.9482,VALID,351,VALID,0.447656,
2011-06-30, 00:35:04,VALID,919.345,VALID,0,VALID,97.2367,VALID,0,VALID,17.9287,VALID,351,VALID,0.916016,
2011-06-30, 00:36:04,VALID,919.317,VALID,0,VALID,97.2748,VALID,0,VALID,17.8911,VALID,351,VALID,0.764844,
2011-06-30, 00:37:04,VALID,919.308,VALID,0,VALID,97.3205,VALID,0,VALID,17.8911,VALID,351,VALID,0.443359,
2011-06-30, 00:38:04,VALID,919.341,VALID,0,VALID,97.3281,VALID,0,VALID,17.8702,VALID,351,VALID,0.617188,
2011-06-30, 00:39:04,VALID,919.334,VALID,0,VALID,97.3586,VALID,0,VALID,17.9092,VALID,351,VALID,0.102734,
2011-06-30, 00:40:04,VALID,919.352,VALID,0,VALID,97.3434,VALID,0,VALID,17.9106,VALID,351,VALID,0.161328,
2011-06-30, 00:41:04,VALID,919.353,VALID,0,VALID,97.3586,VALID,0,VALID,17.9301,VALID,351,VALID,0.486719,
2011-06-30, 00:42:04,VALID,919.319,VALID,0,VALID,97.3053,VALID,0,VALID,17.9287,VALID,351,VALID,0.518359,
2011-06-30, 00:43:04,VALID,919.285,VALID,0,VALID,97.2977,VALID,0,VALID,17.9301,VALID,351,VALID,1.06523,
2011-06-30, 00:44:04,VALID,919.325,VALID,0,VALID,97.2672,VALID,0,VALID,17.8897,VALID,351,VALID,0.7875,
2011-06-30, 00:45:04,VALID,919.332,VALID,0,VALID,97.3205,VALID,0,VALID,17.9106,VALID,351,VALID,0.629297,
2011-06-30, 00:46:04,VALID,919.316,VALID,0,VALID,97.3053,VALID,0,VALID,17.9301,VALID,351,VALID,0.86875,
2011-06-30, 00:47:04,VALID,919.264,VALID,0,VALID,97.2595,VALID,0,VALID,17.8702,VALID,351,VALID,0.903125,
2011-06-30, 00:48:04,VALID,919.249,VALID,0,VALID,97.229,VALID,0,VALID,17.8911,VALID,351,VALID,1.47148,
2011-06-30, 00:49:04,VALID,919.264,VALID,0,VALID,97.2214,VALID,0,VALID,17.8716,VALID,351,VALID,1.05391,
2011-06-30, 00:50:04,VALID,919.266,VALID,0,VALID,97.2977,VALID,0,VALID,17.8702,VALID,351,VALID,0.770703,
2011-06-30, 00:51:04,VALID,919.228,VALID,0,VALID,97.2214,VALID,0,VALID,17.8702,VALID,351,VALID,1.10039,
2011-06-30, 00:52:04,VALID,919.201,VALID,0,VALID,97.1604,VALID,0,VALID,17.8313,VALID,10,VALID,1.36719,
2011-06-30, 00:53:04,VALID,919.232,VALID,0,VALID,97.2367,VALID,0,VALID,17.8521,VALID,18,VALID,0.858203,
2011-06-30, 00:54:04,VALID,919.253,VALID,0,VALID,97.2977,VALID,0,VALID,17.8897,VALID,18,VALID,0.819141,
2011-06-30, 00:55:04,VALID,919.239,VALID,0,VALID,97.229,VALID,0,VALID,17.8702,VALID,18,VALID,0.859766,
2011-06-30, 00:56:04,VALID,919.285,VALID,0,VALID,97.1986,VALID,0,VALID,17.8521,VALID,18,VALID,0.602734,
2011-06-30, 00:57:04,VALID,919.312,VALID,0,VALID,97.2595,VALID,0,VALID,17.8508,VALID,18,VALID,0.021875,
2011-06-30, 00:58:04,VALID,919.309,VALID,0,VALID,97.229,VALID,0,VALID,17.8702,VALID,18,VALID,0.113281,
2011-06-30, 00:59:04,VALID,919.364,VALID,0,VALID,97.1757,VALID,0,VALID,17.8911,VALID,18,VALID,0.601953,
2011-06-30, 01:00:04,VALID,919.388,VALID,0,VALID,97.1986,VALID,0,VALID,17.8702,VALID,18,VALID,0.305859,
2011-06-30, 01:01:04,VALID,919.421,VALID,0,VALID,97.1986,VALID,0,VALID,17.8716,VALID,18,VALID,0.451172,
2011-06-30, 01:02:04,VALID,919.399,VALID,0,VALID,97.1833,VALID,0,VALID,17.8716,VALID,18,VALID,0.00820312,
2011-06-30, 01:03:04,VALID,919.371,VALID,0,VALID,97.2519,VALID,0,VALID,17.9106,VALID,18,VALID,1.37383,
2011-06-30, 01:04:04,VALID,919.382,VALID,0.2,VALID,97.229,VALID,0,VALID,17.9092,VALID,18,VALID,1.53555,
2011-06-30, 01:05:04,VALID,919.368,VALID,0,VALID,97.2824,VALID,0,VALID,17.9287,VALID,35,VALID,1.42305,
2011-06-30, 01:06:04,VALID,919.365,VALID,0,VALID,97.3053,VALID,0,VALID,17.9677,VALID,24,VALID,1.00273,
2011-06-30, 01:07:04,VALID,919.364,VALID,0,VALID,97.3053,VALID,0,VALID,17.9872,VALID,23,VALID,0.461719,
2011-06-30, 01:08:04,VALID,919.354,VALID,0,VALID,97.3129,VALID,0,VALID,18.047,VALID,24,VALID,0.445703,
2011-06-30, 01:09:04,VALID,919.357,VALID,0,VALID,97.29,VALID,0,VALID,18.0262,VALID,24,VALID,0,
2011-06-30, 01:10:04,VALID,919.371,VALID,0,VALID,97.2062,VALID,0,VALID,17.9872,VALID,216,VALID,1.07695,
2011-06-30, 01:11:04,VALID,919.365,VALID,0,VALID,97.1833,VALID,0,VALID,17.9482,VALID,216,VALID,0.446484,
2011-06-30, 01:12:04,VALID,919.359,VALID,0,VALID,97.1986,VALID,0,VALID,17.9482,VALID,216,VALID,0.221094,
2011-06-30, 01:13:04,VALID,919.359,VALID,0,VALID,97.2138,VALID,0,VALID,17.9092,VALID,234,VALID,0.508984,
2011-06-30, 01:14:04,VALID,919.371,VALID,0,VALID,97.2443,VALID,0,VALID,17.9287,VALID,234,VALID,0,
2011-06-30, 01:15:04,VALID,919.34,VALID,0,VALID,97.2824,VALID,0,VALID,17.9482,VALID,234,VALID,0.30625,
2011-06-30, 01:16:04,VALID,919.323,VALID,0,VALID,97.3129,VALID,0,VALID,17.9886,VALID,234,VALID,0.135547,
2011-06-30, 01:17:04,VALID,919.328,VALID,0,VALID,97.2748,VALID,0,VALID,17.9872,VALID,234,VALID,0.235547,
2011-06-30, 01:18:04,VALID,919.298,VALID,0,VALID,97.2519,VALID,0,VALID,17.9677,VALID,234,VALID,0.00742187,
2011-06-30, 01:19:04,VALID,919.263,VALID,0,VALID,97.2519,VALID,0,VALID,17.9677,VALID,234,VALID,0.116016,
2011-06-30, 01:20:04,VALID,919.245,VALID,0,VALID,97.1681,VALID,0.107441,VALID,17.9287,VALID,286,VALID,0.799609,
2011-06-30, 01:21:04,VALID,919.191,VALID,0,VALID,97.1528,VALID,0,VALID,17.8702,VALID,1,VALID,0.916016,
2011-06-30, 01:22:04,VALID,919.137,VALID,0,VALID,97.2367,VALID,0,VALID,17.8897,VALID,1,VALID,1.14258,
2011-06-30, 01:23:04,VALID,919.09,VALID,0,VALID,97.2595,VALID,0,VALID,17.8702,VALID,1,VALID,0.948828,
2011-06-30, 01:24:04,VALID,919.082,VALID,0,VALID,97.3205,VALID,0,VALID,17.9287,VALID,1,VALID,0.683203,
2011-06-30, 01:25:04,VALID,919.063,VALID,0,VALID,97.2672,VALID,0,VALID,17.9287,VALID,1,VALID,0.414453,
2011-06-30, 01:26:04,VALID,919.028,VALID,0,VALID,97.2214,VALID,0,VALID,17.9092,VALID,336,VALID,0.758984,
2011-06-30, 01:27:04,VALID,918.977,VALID,0,VALID,97.2062,VALID,0,VALID,17.9106,VALID,360,VALID,1.15156,
2011-06-30, 01:28:04,VALID,918.951,VALID,0,VALID,97.1757,VALID,0,VALID,17.8702,VALID,13,VALID,1.14141,
2011-06-30, 01:29:04,VALID,918.926,VALID,0,VALID,97.2443,VALID,0,VALID,17.8702,VALID,5,VALID,0.510547,
2011-06-30, 01:30:04,VALID,918.963,VALID,0,VALID,97.1681,VALID,0,VALID,17.8911,VALID,5,VALID,1.23828,
2011-06-30, 01:31:04,VALID,918.958,VALID,0,VALID,97.1909,VALID,0,VALID,17.8118,VALID,5,VALID,0.991016,
2011-06-30, 01:32:04,VALID,918.936,VALID,0,VALID,97.229,VALID,0,VALID,17.8508,VALID,4,VALID,0.386328,
2011-06-30, 01:33:04,VALID,918.941,VALID,0,VALID,97.2367,VALID,0,VALID,17.8508,VALID,5,VALID,0.524609,
2011-06-30, 01:34:04,VALID,918.941,VALID,0,VALID,97.1986,VALID,0,VALID,17.8508,VALID,8,VALID,1.25742,
2011-06-30, 01:35:04,VALID,918.904,VALID,0,VALID,97.1452,VALID,0,VALID,17.8118,VALID,67,VALID,1.53945,
2011-06-30, 01:36:04,VALID,918.907,VALID,0,VALID,97.1604,VALID,0,VALID,17.8118,VALID,67,VALID,1.11055,
2011-06-30, 01:37:04,VALID,918.917,VALID,0,VALID,97.1452,VALID,0,VALID,17.8313,VALID,67,VALID,0.575781,
2011-06-30, 01:38:04,VALID,918.871,VALID,0,VALID,97.1757,VALID,0,VALID,17.8521,VALID,67,VALID,0.427344,
2011-06-30, 01:39:04,VALID,918.804,VALID,0,VALID,97.1376,VALID,0,VALID,17.8326,VALID,67,VALID,0.953906,
2011-06-30, 01:40:04,VALID,918.777,VALID,0,VALID,97.1147,VALID,0,VALID,17.8118,VALID,67,VALID,1.22695,
2011-06-30, 01:41:04,VALID,918.739,VALID,0,VALID,97.1071,VALID,0,VALID,17.8131,VALID,67,VALID,1.58867,
2011-06-30, 01:42:04,VALID,918.736,VALID,0.2,VALID,97.1452,VALID,0,VALID,17.7923,VALID,51,VALID,1.7625,
2011-06-30, 01:43:04,VALID,918.684,VALID,0,VALID,97.0994,VALID,0,VALID,17.8131,VALID,51,VALID,1.02266,
2011-06-30, 01:44:04,VALID,918.669,VALID,0,VALID,97.0613,VALID,0,VALID,17.8118,VALID,51,VALID,0.693359,
2011-06-30, 01:45:04,VALID,918.584,VALID,0,VALID,97.069,VALID,0,VALID,17.8326,VALID,51,VALID,1.17188,
2011-06-30, 01:46:04,VALID,918.552,VALID,0,VALID,97.008,VALID,0,VALID,17.8131,VALID,51,VALID,1.28086,
2011-06-30, 01:47:04,VALID,918.529,VALID,0,VALID,97.008,VALID,0,VALID,17.7728,VALID,51,VALID,0.835156,
2011-06-30, 01:48:04,VALID,918.481,VALID,0,VALID,97.0156,VALID,0,VALID,17.7741,VALID,51,VALID,0.861719,
2011-06-30, 01:49:04,VALID,918.445,VALID,0,VALID,97.0156,VALID,0,VALID,17.7728,VALID,51,VALID,0.926562,
2011-06-30, 01:50:04,VALID,918.433,VALID,0,VALID,96.9317,VALID,0,VALID,17.7741,VALID,51,VALID,0.746484,
2011-06-30, 01:51:04,VALID,918.395,VALID,0,VALID,96.9394,VALID,0,VALID,17.7533,VALID,52,VALID,0.246484,
2011-06-30, 01:52:04,VALID,918.385,VALID,0,VALID,96.8784,VALID,0,VALID,17.7547,VALID,52,VALID,0.689844,
2011-06-30, 01:53:04,VALID,918.328,VALID,0,VALID,96.9089,VALID,0,VALID,17.7936,VALID,51,VALID,1.13281,
2011-06-30, 01:54:04,VALID,918.329,VALID,0,VALID,96.8555,VALID,0,VALID,17.7923,VALID,51,VALID,0.642187,
2011-06-30, 01:55:04,VALID,918.356,VALID,0,VALID,96.8555,VALID,0,VALID,17.7923,VALID,51,VALID,0.275391,
2011-06-30, 01:56:04,VALID,918.304,VALID,0,VALID,96.825,VALID,0,VALID,17.8118,VALID,51,VALID,0.208203,
2011-06-30, 01:57:04,VALID,918.283,VALID,0,VALID,96.7564,VALID,0,VALID,17.8118,VALID,51,VALID,1.06797,
2011-06-30, 01:58:04,VALID,918.27,VALID,0,VALID,96.6497,VALID,0,VALID,17.7728,VALID,51,VALID,0.782422,
2011-06-30, 01:59:04,VALID,918.283,VALID,0,VALID,96.6497,VALID,0,VALID,17.8131,VALID,51,VALID,0.147266,
2011-06-30, 02:00:04,VALID,918.3,VALID,0,VALID,96.642,VALID,0,VALID,17.8535,VALID,51,VALID,0.41875,
2011-06-30, 02:01:04,VALID,918.242,VALID,0,VALID,96.5124,VALID,0,VALID,17.752,VALID,156,VALID,0.387891,
2011-06-30, 02:02:04,VALID,918.196,VALID,0,VALID,96.3524,VALID,0,VALID,17.7923,VALID,156,VALID,0.720312,
2011-06-30, 02:03:04,VALID,918.208,VALID,0,VALID,96.1846,VALID,0,VALID,17.8521,VALID,156,VALID,0.465625,
2011-06-30, 02:04:04,VALID,918.193,VALID,0,VALID,96.0474,VALID,0,VALID,17.8897,VALID,156,VALID,0.144141,
2011-06-30, 02:05:04,VALID,918.154,VALID,0,VALID,95.9102,VALID,0,VALID,17.8897,VALID,156,VALID,0.901563,
2011-06-30, 02:06:04,VALID,918.159,VALID,0,VALID,95.8416,VALID,0,VALID,17.9301,VALID,156,VALID,0.959766,
2011-06-30, 02:07:04,VALID,918.102,VALID,0,VALID,95.712,VALID,0,VALID,17.8911,VALID,121,VALID,1.03516,
2011-06-30, 02:08:04,VALID,918.109,VALID,0,VALID,95.7958,VALID,0,VALID,17.9509,VALID,121,VALID,0.355078,
2011-06-30, 02:09:04,VALID,918.062,VALID,0,VALID,95.895,VALID,0,VALID,17.9496,VALID,121,VALID,0.792578,
2011-06-30, 02:10:04,VALID,918.045,VALID,0,VALID,95.9331,VALID,0,VALID,17.9496,VALID,34,VALID,1.44023,
2011-06-30, 02:11:04,VALID,918.012,VALID,0,VALID,95.9636,VALID,0,VALID,17.9704,VALID,61,VALID,1.28594,
2011-06-30, 02:12:04,VALID,918.04,VALID,0,VALID,95.9254,VALID,0,VALID,17.9704,VALID,68,VALID,0.851953,
2011-06-30, 02:13:04,VALID,918.008,VALID,0,VALID,95.5976,VALID,0,VALID,17.9106,VALID,68,VALID,1.1375,
2011-06-30, 02:14:04,VALID,917.983,VALID,0,VALID,95.1479,VALID,0,VALID,17.9092,VALID,68,VALID,1.33711,
2011-06-30, 02:15:04,VALID,917.973,VALID,0,VALID,94.7896,VALID,0,VALID,18.0094,VALID,68,VALID,1.47148,
2011-06-30, 02:16:04,VALID,917.961,VALID,0,VALID,94.5837,VALID,0,VALID,18.008,VALID,62,VALID,1.23594,
2011-06-30, 02:17:04,VALID,917.964,VALID,0,VALID,94.5609,VALID,0,VALID,17.9872,VALID,65,VALID,1.27031,
2011-06-30, 02:18:04,VALID,917.943,VALID,0,VALID,94.6066,VALID,0,VALID,17.9274,VALID,68,VALID,0.905469,
2011-06-30, 02:19:04,VALID,917.994,VALID,0,VALID,94.7362,VALID,0,VALID,17.9468,VALID,68,VALID,0.364062,
2011-06-30, 02:20:04,VALID,917.959,VALID,0,VALID,94.8124,VALID,0,VALID,17.9899,VALID,68,VALID,0.548047,
2011-06-30, 02:21:04,VALID,918.009,VALID,0,VALID,94.7972,VALID,0,VALID,17.9509,VALID,68,VALID,0.372656,
2011-06-30, 02:22:04,VALID,918.055,VALID,0,VALID,94.8429,VALID,0,VALID,17.8897,VALID,68,VALID,0.748047,
2011-06-30, 02:23:04,VALID,918.023,VALID,0,VALID,94.9192,VALID,0,VALID,17.8897,VALID,68,VALID,0.958984,
2011-06-30, 02:24:04,VALID,917.959,VALID,0,VALID,95.0411,VALID,0,VALID,17.9092,VALID,68,VALID,0.856641,
2011-06-30, 02:25:04,VALID,917.963,VALID,0,VALID,95.0411,VALID,0,VALID,17.8911,VALID,68,VALID,0.712891,
2011-06-30, 02:26:04,VALID,917.956,VALID,0,VALID,95.125,VALID,0,VALID,17.8702,VALID,84,VALID,0.509766,
2011-06-30, 02:27:04,VALID,917.886,VALID,0,VALID,95.1479,VALID,0,VALID,17.8716,VALID,116,VALID,0.539453,
2011-06-30, 02:28:04,VALID,917.88,VALID,0,VALID,95.2622,VALID,0,VALID,17.8911,VALID,116,VALID,0.504297,
2011-06-30, 02:29:04,VALID,917.867,VALID,0,VALID,95.3689,VALID,0,VALID,17.8716,VALID,116,VALID,0.277734,
2011-06-30, 02:30:04,VALID,917.908,VALID,0,VALID,95.4375,VALID,0,VALID,17.8716,VALID,116,VALID,0.438672,
2011-06-30, 02:31:04,VALID,917.9,VALID,0,VALID,95.5138,VALID,0,VALID,17.873,VALID,116,VALID,0.680078,
2011-06-30, 02:32:04,VALID,917.856,VALID,0,VALID,95.5214,VALID,0,VALID,17.8313,VALID,116,VALID,0.680859,
2011-06-30, 02:33:04,VALID,917.859,VALID,0,VALID,95.59,VALID,0,VALID,17.8313,VALID,116,VALID,0.928516,
2011-06-30, 02:34:04,VALID,917.854,VALID,0,VALID,95.651,VALID,0,VALID,17.8118,VALID,116,VALID,0.795703,
2011-06-30, 02:35:04,VALID,917.847,VALID,0,VALID,95.6357,VALID,0,VALID,17.8118,VALID,115,VALID,1.21445,
2011-06-30, 02:36:04,VALID,917.837,VALID,0,VALID,95.5595,VALID,0,VALID,17.7728,VALID,115,VALID,1.22695,
2011-06-30, 02:37:04,VALID,917.827,VALID,0,VALID,95.529,VALID,0,VALID,17.7728,VALID,115,VALID,1.04766,
2011-06-30, 02:38:04,VALID,917.804,VALID,0,VALID,95.1555,VALID,0,VALID,17.7338,VALID,62,VALID,1.22148,
2011-06-30, 02:39:04,VALID,917.798,VALID,0,VALID,94.7286,VALID,0,VALID,17.7728,VALID,62,VALID,0.916406,
2011-06-30, 02:40:04,VALID,917.772,VALID,0,VALID,93.8366,VALID,0,VALID,17.7728,VALID,62,VALID,1.26523,
2011-06-30, 02:41:04,VALID,917.722,VALID,0,VALID,92.0527,VALID,0,VALID,17.8702,VALID,62,VALID,0.291797,
2011-06-30, 02:42:04,VALID,917.693,VALID,0,VALID,89.255,VALID,0,VALID,18.008,VALID,62,VALID,0.481641,
2011-06-30, 02:43:04,VALID,917.673,VALID,0,VALID,87.1509,VALID,0,VALID,18.2211,VALID,62,VALID,0.629687,
2011-06-30, 02:44:04,VALID,917.635,VALID,0,VALID,87.8904,VALID,0,VALID,18.377,VALID,62,VALID,0,
2011-06-30, 02:45:04,VALID,917.571,VALID,0,VALID,87.9285,VALID,0,VALID,18.4759,VALID,62,VALID,0.731641,
2011-06-30, 02:46:04,VALID,917.533,VALID,0,VALID,88.2792,VALID,0,VALID,18.4745,VALID,62,VALID,0.432031,
2011-06-30, 02:47:04,VALID,917.545,VALID,0,VALID,88.9271,VALID,0,VALID,18.4174,VALID,175,VALID,0.948047,
2011-06-30, 02:48:04,VALID,917.492,VALID,0,VALID,89.3464,VALID,0,VALID,18.3199,VALID,175,VALID,1.18008,
2011-06-30, 02:49:04,VALID,917.51,VALID,0,VALID,87.9742,VALID,0,VALID,18.3004,VALID,170,VALID,1.25352,
2011-06-30, 02:50:04,VALID,917.488,VALID,0,VALID,91.1151,VALID,0,VALID,18.2615,VALID,168,VALID,1.54688,
2011-06-30, 02:51:04,VALID,917.417,VALID,0,VALID,92.411,VALID,0,VALID,18.1445,VALID,166,VALID,0.855469,
2011-06-30, 02:52:04,VALID,917.415,VALID,0,VALID,93.2877,VALID,0,VALID,18.047,VALID,148,VALID,0.789844,
2011-06-30, 02:53:04,VALID,917.432,VALID,0,VALID,93.9129,VALID,0,VALID,17.9899,VALID,161,VALID,1.31602,
2011-06-30, 02:54:04,VALID,917.455,VALID,0,VALID,94.4465,VALID,0,VALID,17.9106,VALID,167,VALID,1.31719,
2011-06-30, 02:55:04,VALID,917.441,VALID,0,VALID,94.8887,VALID,0,VALID,17.8118,VALID,160,VALID,1.52031,
2011-06-30, 02:56:04,VALID,917.44,VALID,0,VALID,95.1936,VALID,0,VALID,17.7936,VALID,168,VALID,0.464453,
2011-06-30, 02:57:04,VALID,917.427,VALID,0,VALID,95.4147,VALID,0,VALID,17.7533,VALID,168,VALID,0.582031,
2011-06-30, 02:58:04,VALID,917.455,VALID,0,VALID,95.4909,VALID,0,VALID,17.7157,VALID,168,VALID,0.710156,
2011-06-30, 02:59:04,VALID,917.432,VALID,0,VALID,95.4071,VALID,0,VALID,17.6767,VALID,168,VALID,0.550391,
2011-06-30, 03:00:04,VALID,917.462,VALID,0,VALID,95.3003,VALID,0,VALID,17.6754,VALID,168,VALID,0.593359,
2011-06-30, 03:01:04,VALID,917.48,VALID,0,VALID,95.125,VALID,0,VALID,17.7547,VALID,168,VALID,0.567187,
2011-06-30, 03:02:04,VALID,917.431,VALID,0,VALID,94.9573,VALID,0,VALID,17.7741,VALID,168,VALID,0.844531,
2011-06-30, 03:03:04,VALID,917.437,VALID,0,VALID,94.7209,VALID,0,VALID,17.7728,VALID,168,VALID,0.638672,
2011-06-30, 03:04:04,VALID,917.4,VALID,0,VALID,94.416,VALID,0,VALID,17.8118,VALID,168,VALID,0.807031,
2011-06-30, 03:05:04,VALID,917.371,VALID,0,VALID,93.9891,VALID,0,VALID,17.7923,VALID,168,VALID,0.651563,
2011-06-30, 03:06:04,VALID,917.346,VALID,0,VALID,93.7299,VALID,0,VALID,17.8313,VALID,168,VALID,0.224609,
2011-06-30, 03:07:04,VALID,917.323,VALID,0,VALID,93.0438,VALID,0,VALID,17.8702,VALID,168,VALID,0.379687,
2011-06-30, 03:08:04,VALID,917.303,VALID,0,VALID,92.19,VALID,0,VALID,17.9092,VALID,168,VALID,0.658203,
2011-06-30, 03:09:04,VALID,917.239,VALID,0,VALID,91.1456,VALID,0,VALID,17.9677,VALID,168,VALID,0.758984,
2011-06-30, 03:10:04,VALID,917.225,VALID,0,VALID,91.2294,VALID,0,VALID,18.1041,VALID,168,VALID,0.113281,
2011-06-30, 03:11:04,VALID,917.205,VALID,0,VALID,91.9003,VALID,0,VALID,18.1236,VALID,168,VALID,0.0234375,
2011-06-30, 03:12:04,VALID,917.184,VALID,0,VALID,91.6411,VALID,0,VALID,18.086,VALID,168,VALID,0.526953,
2011-06-30, 03:13:04,VALID,917.144,VALID,0,VALID,91.603,VALID,0,VALID,18.1055,VALID,168,VALID,0.328516,
2011-06-30, 03:14:04,VALID,917.128,VALID,0,VALID,92.1671,VALID,0,VALID,18.1041,VALID,168,VALID,0.333203,
2011-06-30, 03:15:04,VALID,917.098,VALID,0,VALID,92.3272,VALID,0,VALID,18.086,VALID,168,VALID,0.45,
2011-06-30, 03:16:04,VALID,917.079,VALID,0,VALID,92.655,VALID,0,VALID,18.0262,VALID,168,VALID,0.669531,
2011-06-30, 03:17:04,VALID,917.121,VALID,0,VALID,92.5483,VALID,0,VALID,18.008,VALID,168,VALID,0.415234,
2011-06-30, 03:18:04,VALID,917.105,VALID,0,VALID,92.5483,VALID,0,VALID,17.9691,VALID,168,VALID,0.181641,
2011-06-30, 03:19:04,VALID,917.075,VALID,0,VALID,92.7007,VALID,0,VALID,17.9691,VALID,168,VALID,0.219531,
2011-06-30, 03:20:04,VALID,917.078,VALID,0,VALID,92.8913,VALID,0,VALID,17.9287,VALID,168,VALID,0.353906,
2011-06-30, 03:21:04,VALID,917.102,VALID,0,VALID,93.2191,VALID,0,VALID,17.9482,VALID,168,VALID,0.0117188,
2011-06-30, 03:22:04,VALID,917.104,VALID,0,VALID,93.0285,VALID,0,VALID,17.9092,VALID,168,VALID,0,
2011-06-30, 03:23:04,VALID,917.117,VALID,0,VALID,93.1963,VALID,0,VALID,17.8897,VALID,168,VALID,0,
2011-06-30, 03:24:04,VALID,917.08,VALID,0,VALID,92.8761,VALID,0,VALID,17.8702,VALID,168,VALID,0.161328,
2011-06-30, 03:25:04,VALID,917.086,VALID,0,VALID,92.4415,VALID,0,VALID,17.8897,VALID,168,VALID,0.752734,
2011-06-30, 03:26:04,VALID,917.097,VALID,0,VALID,92.8075,VALID,0,VALID,17.9106,VALID,168,VALID,0.630469,
2011-06-30, 03:27:04,VALID,917.086,VALID,0,VALID,93.2572,VALID,0,VALID,17.8702,VALID,168,VALID,0.539844,
2011-06-30, 03:28:04,VALID,917.069,VALID,0,VALID,93.5241,VALID,0,VALID,17.8521,VALID,168,VALID,0.376172,
2011-06-30, 03:29:04,VALID,917.088,VALID,0,VALID,93.7985,VALID,0,VALID,17.7936,VALID,168,VALID,0.804688,
2011-06-30, 03:30:04,VALID,917.081,VALID,0,VALID,94.0501,VALID,0,VALID,17.7352,VALID,168,VALID,0.970703,
2011-06-30, 03:31:04,VALID,917.088,VALID,0,VALID,94.2635,VALID,0,VALID,17.6962,VALID,168,VALID,0.979688,
2011-06-30, 03:32:04,VALID,917.073,VALID,0,VALID,94.538,VALID,0,VALID,17.6975,VALID,168,VALID,0.769922,
2011-06-30, 03:33:04,VALID,917.087,VALID,0,VALID,94.6676,VALID,0,VALID,17.6559,VALID,168,VALID,0.339844,
2011-06-30, 03:34:04,VALID,917.095,VALID,0,VALID,94.8505,VALID,0,VALID,17.6364,VALID,168,VALID,0.009375,
2011-06-30, 03:35:04,VALID,917.097,VALID,0,VALID,94.881,VALID,0,VALID,17.6169,VALID,168,VALID,0.537109,
2011-06-30, 03:36:04,VALID,917.082,VALID,0,VALID,94.9801,VALID,0,VALID,17.6182,VALID,168,VALID,0.487891,
2011-06-30, 03:37:04,VALID,917.053,VALID,0,VALID,95.064,VALID,0,VALID,17.5987,VALID,168,VALID,1.00742,
2011-06-30, 03:38:04,VALID,917.035,VALID,0,VALID,94.942,VALID,0,VALID,17.5584,VALID,159,VALID,1.11172,
2011-06-30, 03:39:04,VALID,917.043,VALID,0,VALID,94.881,VALID,0,VALID,17.5779,VALID,16,VALID,1.39063,
2011-06-30, 03:40:04,VALID,917.012,VALID,0,VALID,94.8429,VALID,0,VALID,17.5987,VALID,16,VALID,1.03398,
2011-06-30, 03:41:04,VALID,917.009,VALID,0,VALID,94.8048,VALID,0,VALID,17.5987,VALID,16,VALID,1.07813,
2011-06-30, 03:42:04,VALID,917.003,VALID,0,VALID,94.8582,VALID,0,VALID,17.5779,VALID,16,VALID,0.650391,
2011-06-30, 03:43:04,VALID,916.999,VALID,0,VALID,95.0259,VALID,0,VALID,17.5598,VALID,16,VALID,0.0617188,
2011-06-30, 03:44:04,VALID,916.967,VALID,0,VALID,95.2317,VALID,0,VALID,17.5792,VALID,16,VALID,0.358594,
2011-06-30, 03:45:04,VALID,916.944,VALID,0,VALID,95.4299,VALID,0,VALID,17.5987,VALID,16,VALID,0.0484375,
2011-06-30, 03:46:04,VALID,916.922,VALID,0,VALID,95.4223,VALID,0,VALID,17.6001,VALID,16,VALID,0.471875,